Starlink 31557

operational
NORAD ID: 59357 Int'l Des: 2024-060 Owner: SPXS Country: US Constellation: starlink
LEOCIRCULAR

About Starlink 31557

Description loading...

Live Position

Loading 3D Globe...

Upcoming Passes

Altitude History

Altitude vs Time

uPlot chart will show altitude changes over time

Two-Line Element Set

1 59357U 24060K 26036.15232713 -.00001221 00000-0 -34858-4 0 9992
2 59357 43.0032 79.5170 0001695 278.8495 81.2165 15.27578343105134
Epoch: Feb 5, 2026 • Age: 15 hours

Current Status

Altitude 482.8 km
Velocity 7.63 km/s
Sub-Earth Point 14.37°N, 172.81°W
Launch Date Mar 31, 2024
Age 1.8 years
Type internet

Technical Details

Classification Payload
Mass 730.00 kg
Dry Mass 700.00 kg
Total Mass 730.00 kg
Length 0.30 m
Diameter 4.10 m
Span 29.00 m
Shape Box + pan
Manufacturer SPXS
Bus Type Starlink V2M
Phase Status In Orbit
Owner/State SPXS/US

Large Constellations

Loading constellations...